Terminal Aerodrome Forecast
Issued by NWS

Home | Current Version | Previous Version | Text Only | Print | Product List | Glossary On
Versions: 1 2 3 4 5 6 7 8 9 10 11 12
000
FTUS43 KJKL 252320
TAFSJS
TAF
KSJS 252320Z 2600/2624 23007KT P6SM VCSH BKN050
     FM260800 17003KT P6SM SCT040 BKN150
     FM261600 20007KT P6SM VCTS BKN040CB BKN250=

USA.gov is the U.S. government's official web portal to all federal, state and local government web resources and services.